Time,TemperatureF,DewpointF,PressureIn,WindDirection,WindDirectionDegrees,WindSpeedMPH,WindSpeedGustMPH,Humidity,HourlyPrecipIn,Conditions,Clouds,dailyrainin,SoftwareType,DateUTC
2013-04-02 00:00:00,56.7,53.8,29.83,WSW,244,0.0,0.0,90,0.00,,---,0.00,VWS V14.01,2013-04-02 04:00:00,
2013-04-02 00:05:00,56.5,53.6,29.83,WSW,244,0.0,0.0,90,0.00,,---,0.00,VWS V14.01,2013-04-02 04:05:00,
2013-04-02 00:10:00,56.5,53.6,29.83,WSW,244,0.0,0.0,90,0.00,,---,0.00,VWS V14.01,2013-04-02 04:10:00,
2013-04-02 00:15:00,56.5,53.6,29.83,WSW,244,0.0,0.0,90,0.00,,---,0.00,VWS V14.01,2013-04-02 04:15:00,
2013-04-02 00:20:00,56.3,53.4,29.83,WSW,245,0.0,0.0,90,0.00,,---,0.00,VWS V14.01,2013-04-02 04:20:00,
2013-04-02 00:25:00,56.3,53.4,29.85,WSW,245,0.0,0.0,90,0.00,,---,0.00,VWS V14.01,2013-04-02 04:25:00,
2013-04-02 00:30:00,56.3,53.4,29.85,WSW,245,0.0,0.0,90,0.00,,---,0.00,VWS V14.01,2013-04-02 04:30:00,
2013-04-02 00:35:00,56.3,53.4,29.85,WSW,245,0.0,0.0,90,0.00,,---,0.00,VWS V14.01,2013-04-02 04:35:00,
2013-04-02 00:40:00,56.1,53.2,29.85,WSW,246,0.0,0.0,90,0.00,,---,0.00,VWS V14.01,2013-04-02 04:40:00,
2013-04-02 00:45:00,56.1,53.2,29.85,WSW,246,0.0,0.0,90,0.00,,---,0.00,VWS V14.01,2013-04-02 04:45:00,
2013-04-02 00:50:00,56.1,53.2,29.85,WSW,246,0.0,0.0,90,0.00,,---,0.00,VWS V14.01,2013-04-02 04:50:00,
2013-04-02 00:55:00,56.1,53.2,29.85,WSW,246,0.0,0.0,90,0.00,,---,0.00,VWS V14.01,2013-04-02 04:55:00,
2013-04-02 01:00:00,56.1,53.2,29.85,WSW,246,0.0,0.0,90,0.00,,---,0.00,VWS V14.01,2013-04-02 05:00:00,
2013-04-02 01:05:00,55.9,53.0,29.85,WSW,246,0.0,0.0,90,0.00,,---,0.00,VWS V14.01,2013-04-02 05:05:00,
2013-04-02 01:10:00,55.8,52.6,29.85,WSW,246,0.0,0.0,89,0.00,,---,0.00,VWS V14.01,2013-04-02 05:10:00,
2013-04-02 01:15:00,55.4,52.2,29.85,WSW,246,0.0,0.0,89,0.00,,---,0.00,VWS V14.01,2013-04-02 05:15:00,
2013-04-02 01:20:00,55.4,52.2,29.85,WSW,246,0.0,0.0,89,0.00,,---,0.00,VWS V14.01,2013-04-02 05:20:00,
2013-04-02 01:25:00,55.6,52.4,29.88,WSW,246,0.0,0.0,89,0.00,,---,0.00,VWS V14.01,2013-04-02 05:25:00,
2013-04-02 01:30:00,55.4,52.2,29.88,WSW,246,0.0,0.0,89,0.00,,---,0.00,VWS V14.01,2013-04-02 05:30:00,
2013-04-02 01:35:00,55.4,52.2,29.88,WSW,247,0.0,0.0,89,0.00,,---,0.00,VWS V14.01,2013-04-02 05:35:00,
2013-04-02 01:40:00,55.4,52.2,29.88,WSW,246,0.0,0.0,89,0.00,,---,0.00,VWS V14.01,2013-04-02 05:40:00,
2013-04-02 01:45:00,55.4,52.2,29.88,WSW,247,0.0,0.0,89,0.00,,---,0.00,VWS V14.01,2013-04-02 05:45:00,
2013-04-02 01:50:00,55.4,51.9,29.88,WSW,247,0.0,0.0,88,0.00,,---,0.00,VWS V14.01,2013-04-02 05:50:00,
2013-04-02 01:55:00,55.6,52.1,29.88,WSW,247,0.0,0.0,88,0.00,,---,0.00,VWS V14.01,2013-04-02 05:55:00,
2013-04-02 02:00:00,55.6,51.8,29.88,WSW,248,0.0,0.0,87,0.00,,---,0.00,VWS V14.01,2013-04-02 06:00:00,
2013-04-02 02:05:00,55.6,51.8,29.88,North,353,0.0,0.0,87,0.00,,---,0.00,VWS V14.01,2013-04-02 06:05:00,
2013-04-02 02:10:00,55.6,51.2,29.88,NW,321,0.0,0.0,85,0.00,,---,0.00,VWS V14.01,2013-04-02 06:10:00,
2013-04-02 02:15:00,55.6,50.8,29.88,North,353,0.0,0.0,84,0.00,,---,0.00,VWS V14.01,2013-04-02 06:15:00,
2013-04-02 02:20:00,55.6,50.5,29.88,NNE,29,0.0,0.0,83,0.00,,---,0.00,VWS V14.01,2013-04-02 06:20:00,
2013-04-02 02:25:00,55.4,50.0,29.88,NNE,13,0.0,0.0,82,0.00,,---,0.00,VWS V14.01,2013-04-02 06:25:00,
2013-04-02 02:30:00,55.4,49.7,29.88,NE,37,0.0,0.0,81,0.00,,---,0.00,VWS V14.01,2013-04-02 06:30:00,
2013-04-02 02:35:00,55.4,49.7,29.88,NNE,33,0.0,0.0,81,0.00,,---,0.00,VWS V14.01,2013-04-02 06:35:00,
2013-04-02 02:40:00,55.2,49.2,29.88,NNW,327,0.0,0.0,80,0.00,,---,0.00,VWS V14.01,2013-04-02 06:40:00,
2013-04-02 02:45:00,55.4,48.7,29.88,NNE,17,0.0,0.0,78,0.00,,---,0.00,VWS V14.01,2013-04-02 06:45:00,
2013-04-02 02:50:00,55.4,48.0,29.88,NNE,20,0.0,0.0,76,0.00,,---,0.00,VWS V14.01,2013-04-02 06:50:00,
2013-04-02 02:55:00,55.2,47.5,29.88,North,349,0.0,0.0,75,0.00,,---,0.00,VWS V14.01,2013-04-02 06:55:00,
2013-04-02 03:00:00,55.2,46.7,29.88,North,353,0.0,0.0,73,0.00,,---,0.00,VWS V14.01,2013-04-02 07:00:00,
2013-04-02 03:05:00,55.2,46.0,29.88,North,353,0.0,0.0,71,0.00,,---,0.00,VWS V14.01,2013-04-02 07:05:00,
2013-04-02 03:10:00,55.0,45.5,29.91,North,353,0.0,0.0,70,0.00,,---,0.00,VWS V14.01,2013-04-02 07:10:00,
2013-04-02 03:15:00,54.9,44.9,29.91,North,357,0.0,0.0,69,0.00,,---,0.00,VWS V14.01,2013-04-02 07:15:00,
2013-04-02 03:20:00,54.7,44.3,29.91,NE,34,0.0,0.0,68,0.00,,---,0.00,VWS V14.01,2013-04-02 07:20:00,
2013-04-02 03:25:00,54.5,43.8,29.91,NNE,15,0.0,0.0,67,0.00,,---,0.00,VWS V14.01,2013-04-02 07:25:00,
2013-04-02 03:30:00,54.5,43.4,29.91,NE,51,0.0,0.0,66,0.00,,---,0.00,VWS V14.01,2013-04-02 07:30:00,
2013-04-02 03:35:00,54.3,42.8,29.91,NE,48,0.0,0.0,65,0.00,,---,0.00,VWS V14.01,2013-04-02 07:35:00,
2013-04-02 03:40:00,54.1,42.7,29.91,ENE,75,0.0,3.1,65,0.00,,---,0.00,VWS V14.01,2013-04-02 07:40:00,
2013-04-02 03:45:00,54.0,42.1,29.91,NE,41,0.0,0.0,64,0.00,,---,0.00,VWS V14.01,2013-04-02 07:45:00,
2013-04-02 03:50:00,53.8,41.1,29.91,NNE,32,0.0,0.0,62,0.00,,---,0.00,VWS V14.01,2013-04-02 07:50:00,
2013-04-02 03:55:00,53.4,40.7,29.91,ENE,57,0.0,0.0,62,0.00,,---,0.00,VWS V14.01,2013-04-02 07:55:00,
2013-04-02 04:00:00,53.4,40.7,29.91,ENE,60,0.0,0.0,62,0.00,,---,0.00,VWS V14.01,2013-04-02 08:00:00,
2013-04-02 04:05:00,53.2,40.6,29.91,NNE,26,0.0,0.0,62,0.00,,---,0.00,VWS V14.01,2013-04-02 08:05:00,
2013-04-02 04:10:00,53.1,40.4,29.91,NNE,14,0.0,0.0,62,0.00,,---,0.00,VWS V14.01,2013-04-02 08:10:00,
2013-04-02 04:15:00,53.1,40.4,29.91,NNE,26,0.0,0.0,62,0.00,,---,0.00,VWS V14.01,2013-04-02 08:15:00,
2013-04-02 04:20:00,52.9,40.2,29.91,NE,38,0.0,0.0,62,0.00,,---,0.00,VWS V14.01,2013-04-02 08:20:00,
2013-04-02 04:25:00,52.7,40.1,29.91,NE,40,0.0,0.0,62,0.00,,---,0.00,VWS V14.01,2013-04-02 08:25:00,
2013-04-02 04:30:00,52.5,39.5,29.91,NNE,30,0.0,0.0,61,0.00,,---,0.00,VWS V14.01,2013-04-02 08:30:00,
2013-04-02 04:35:00,52.5,39.5,29.91,NE,48,0.0,0.0,61,0.00,,---,0.00,VWS V14.01,2013-04-02 08:35:00,
2013-04-02 04:40:00,52.3,39.3,29.94,NE,35,0.0,0.0,61,0.00,,---,0.00,VWS V14.01,2013-04-02 08:40:00,
2013-04-02 04:45:00,52.3,39.3,29.94,NNE,26,0.0,0.0,61,0.00,,---,0.00,VWS V14.01,2013-04-02 08:45:00,
2013-04-02 04:50:00,52.2,39.1,29.94,North,1,0.0,0.0,61,0.00,,---,0.00,VWS V14.01,2013-04-02 08:50:00,
2013-04-02 04:55:00,52.2,39.1,29.94,NE,54,0.0,0.0,61,0.00,,---,0.00,VWS V14.01,2013-04-02 08:55:00,
2013-04-02 05:00:00,52.0,39.0,29.94,ENE,60,0.0,0.0,61,0.00,,---,0.00,VWS V14.01,2013-04-02 09:00:00,
2013-04-02 05:05:00,51.8,38.8,29.94,ENE,60,0.0,0.0,61,0.00,,---,0.00,VWS V14.01,2013-04-02 09:05:00,
2013-04-02 05:10:00,51.8,38.8,29.94,ENE,60,0.0,0.0,61,0.00,,---,0.00,VWS V14.01,2013-04-02 09:10:00,
2013-04-02 05:15:00,51.6,39.0,29.94,ENE,60,0.0,0.0,62,0.00,,---,0.00,VWS V14.01,2013-04-02 09:15:00,
2013-04-02 05:20:00,51.6,39.0,29.94,ENE,60,0.0,0.0,62,0.00,,---,0.00,VWS V14.01,2013-04-02 09:20:00,
2013-04-02 05:25:00,51.4,38.9,29.94,NNW,329,0.0,0.0,62,0.00,,---,0.00,VWS V14.01,2013-04-02 09:25:00,
2013-04-02 05:30:00,51.4,38.9,29.94,NNE,28,0.0,0.0,62,0.00,,---,0.00,VWS V14.01,2013-04-02 09:30:00,
2013-04-02 05:35:00,51.3,39.1,29.94,NNE,30,0.0,0.0,63,0.00,,---,0.00,VWS V14.01,2013-04-02 09:35:00,
2013-04-02 05:40:00,51.3,39.1,29.94,NE,47,0.0,0.0,63,0.00,,---,0.00,VWS V14.01,2013-04-02 09:40:00,
2013-04-02 05:45:00,51.1,38.9,29.94,NE,50,0.0,0.0,63,0.00,,---,0.00,VWS V14.01,2013-04-02 09:45:00,
2013-04-02 05:50:00,50.9,38.8,29.94,NE,50,0.0,0.0,63,0.00,,---,0.00,VWS V14.01,2013-04-02 09:50:00,
2013-04-02 05:55:00,50.9,38.8,29.97,NNE,32,0.0,0.0,63,0.00,,---,0.00,VWS V14.01,2013-04-02 09:55:00,
2013-04-02 06:00:00,50.9,38.8,29.97,NNE,22,0.0,0.0,63,0.00,,---,0.00,VWS V14.01,2013-04-02 10:00:00,
2013-04-02 06:05:00,50.7,38.6,29.97,NNE,22,0.0,0.0,63,0.00,,---,0.00,VWS V14.01,2013-04-02 10:05:00,
2013-04-02 06:10:00,50.7,38.6,29.97,NNE,22,0.0,0.0,63,0.00,,---,0.00,VWS V14.01,2013-04-02 10:10:00,
2013-04-02 06:15:00,50.7,38.6,29.97,NNE,16,0.0,0.0,63,0.00,,---,0.00,VWS V14.01,2013-04-02 10:15:00,
2013-04-02 06:20:00,50.4,38.3,29.97,NNE,16,0.0,0.0,63,0.00,,---,0.00,VWS V14.01,2013-04-02 10:20:00,
2013-04-02 06:25:00,50.4,38.3,29.97,North,2,0.0,0.0,63,0.00,,---,0.00,VWS V14.01,2013-04-02 10:25:00,
2013-04-02 06:30:00,50.4,38.3,29.97,North,2,0.0,0.0,63,0.00,,---,0.00,VWS V14.01,2013-04-02 10:30:00,
2013-04-02 06:35:00,50.2,38.1,29.97,North,1,0.0,0.0,63,0.00,,---,0.00,VWS V14.01,2013-04-02 10:35:00,
2013-04-02 06:40:00,50.2,37.7,30.00,North,353,0.0,0.0,62,0.00,,---,0.00,VWS V14.01,2013-04-02 10:40:00,
2013-04-02 06:45:00,50.2,37.3,30.00,North,0,0.0,0.0,61,0.00,,---,0.00,VWS V14.01,2013-04-02 10:45:00,
2013-04-02 06:50:00,50.2,37.3,30.00,North,353,0.0,0.0,61,0.00,,---,0.00,VWS V14.01,2013-04-02 10:50:00,
2013-04-02 06:55:00,50.0,36.7,30.00,North,1,0.0,0.0,60,0.00,,---,0.00,VWS V14.01,2013-04-02 10:55:00,
2013-04-02 07:00:00,50.0,36.7,30.00,NNW,334,0.0,0.0,60,0.00,,---,0.00,VWS V14.01,2013-04-02 11:00:00,
2013-04-02 07:05:00,50.0,36.7,30.00,North,1,0.0,0.0,60,0.00,,---,0.00,VWS V14.01,2013-04-02 11:05:00,
2013-04-02 07:10:00,49.8,36.5,30.00,North,0,0.0,0.0,60,0.00,,---,0.00,VWS V14.01,2013-04-02 11:10:00,
2013-04-02 07:15:00,49.8,36.5,30.00,NNW,341,0.0,0.0,60,0.00,,---,0.00,VWS V14.01,2013-04-02 11:15:00,
2013-04-02 07:20:00,49.6,36.3,30.00,NW,324,0.0,0.0,60,0.00,,---,0.00,VWS V14.01,2013-04-02 11:20:00,
2013-04-02 07:25:00,49.6,36.3,30.00,NW,324,0.0,0.0,60,0.00,,---,0.00,VWS V14.01,2013-04-02 11:25:00,
2013-04-02 07:30:00,49.6,36.8,30.00,NW,323,0.0,0.0,61,0.00,,---,0.00,VWS V14.01,2013-04-02 11:30:00,
2013-04-02 07:35:00,49.6,36.8,30.00,NNW,341,0.0,0.0,61,0.00,,---,0.00,VWS V14.01,2013-04-02 11:35:00,
2013-04-02 07:40:00,49.6,36.8,30.03,NNW,341,0.0,0.0,61,0.00,,---,0.00,VWS V14.01,2013-04-02 11:40:00,
2013-04-02 07:45:00,49.6,36.3,30.03,NNE,25,0.0,0.0,60,0.00,,---,0.00,VWS V14.01,2013-04-02 11:45:00,
2013-04-02 07:50:00,49.6,36.3,30.03,NNE,15,0.0,0.0,60,0.00,,---,0.00,VWS V14.01,2013-04-02 11:50:00,
2013-04-02 07:55:00,49.8,36.1,30.03,ENE,59,0.0,0.0,59,0.00,,---,0.00,VWS V14.01,2013-04-02 11:55:00,
2013-04-02 08:00:00,49.8,36.1,30.03,NNE,14,0.0,0.0,59,0.00,,---,0.00,VWS V14.01,2013-04-02 12:00:00,
2013-04-02 08:05:00,50.0,35.4,30.03,North,4,0.0,0.0,57,0.00,,---,0.00,VWS V14.01,2013-04-02 12:05:00,
2013-04-02 08:10:00,50.2,35.5,30.03,NNE,12,0.0,0.0,57,0.00,,---,0.00,VWS V14.01,2013-04-02 12:10:00,
2013-04-02 08:15:00,50.2,35.1,30.03,North,9,0.0,0.0,56,0.00,,---,0.00,VWS V14.01,2013-04-02 12:15:00,
2013-04-02 08:20:00,50.4,35.3,30.03,NNE,24,0.0,0.0,56,0.00,,---,0.00,VWS V14.01,2013-04-02 12:20:00,
2013-04-02 08:25:00,50.5,34.5,30.03,NE,34,0.0,0.0,54,0.00,,---,0.00,VWS V14.01,2013-04-02 12:25:00,
2013-04-02 08:30:00,50.7,34.7,30.03,ENE,59,0.0,0.0,54,0.00,,---,0.00,VWS V14.01,2013-04-02 12:30:00,
2013-04-02 08:35:00,50.9,33.9,30.03,ENE,59,0.0,4.0,52,0.00,,---,0.00,VWS V14.01,2013-04-02 12:35:00,
2013-04-02 08:40:00,50.9,33.4,30.06,East,84,0.0,0.0,51,0.00,,---,0.00,VWS V14.01,2013-04-02 12:40:00,
2013-04-02 08:45:00,51.1,33.1,30.06,North,353,0.0,0.0,50,0.00,,---,0.00,VWS V14.01,2013-04-02 12:45:00,
2013-04-02 08:50:00,51.4,33.4,30.06,North,353,0.0,0.0,50,0.00,,---,0.00,VWS V14.01,2013-04-02 12:50:00,
2013-04-02 08:55:00,51.6,34.1,30.06,North,357,0.0,0.0,51,0.00,,---,0.00,VWS V14.01,2013-04-02 12:55:00,
2013-04-02 09:00:00,51.8,33.8,30.06,North,353,5.4,5.4,50,0.00,,---,0.00,VWS V14.01,2013-04-02 13:00:00,
2013-04-02 09:05:00,51.6,32.6,30.06,North,357,0.0,0.0,48,0.00,,---,0.00,VWS V14.01,2013-04-02 13:05:00,
2013-04-02 09:10:00,51.8,32.2,30.06,NNE,16,0.0,2.2,47,0.00,,---,0.00,VWS V14.01,2013-04-02 13:10:00,
2013-04-02 09:15:00,52.0,32.4,30.06,NNW,334,0.0,0.0,47,0.00,,---,0.00,VWS V14.01,2013-04-02 13:15:00,
2013-04-02 09:20:00,52.2,32.0,30.06,NE,52,4.0,4.5,46,0.00,,---,0.00,VWS V14.01,2013-04-02 13:20:00,
2013-04-02 09:25:00,52.2,31.5,30.06,NNE,31,0.0,0.0,45,0.00,,---,0.00,VWS V14.01,2013-04-02 13:25:00,
2013-04-02 09:30:00,52.5,31.8,30.06,NNW,344,0.0,0.0,45,0.00,,---,0.00,VWS V14.01,2013-04-02 13:30:00,
2013-04-02 09:35:00,52.7,31.4,30.06,NNE,16,0.0,3.6,44,0.00,,---,0.00,VWS V14.01,2013-04-02 13:35:00,
2013-04-02 09:40:00,52.7,30.3,30.06,North,10,0.0,0.0,42,0.00,,---,0.00,VWS V14.01,2013-04-02 13:40:00,
2013-04-02 09:45:00,52.7,30.3,30.06,East,98,0.0,3.6,42,0.00,,---,0.00,VWS V14.01,2013-04-02 13:45:00,
2013-04-02 09:50:00,53.1,30.0,30.06,NNE,22,0.0,0.0,41,0.00,,---,0.00,VWS V14.01,2013-04-02 13:50:00,
2013-04-02 09:55:00,53.2,28.9,30.06,North,349,0.0,3.6,39,0.00,,---,0.00,VWS V14.01,2013-04-02 13:55:00,
2013-04-02 10:00:00,53.2,28.3,30.06,North,0,0.0,0.0,38,0.00,,---,0.00,VWS V14.01,2013-04-02 14:00:00,
2013-04-02 10:05:00,53.4,28.5,30.06,North,353,0.0,3.6,38,0.00,,---,0.00,VWS V14.01,2013-04-02 14:05:00,
2013-04-02 10:10:00,53.6,28.0,30.06,ENE,72,0.0,3.1,37,0.00,,---,0.00,VWS V14.01,2013-04-02 14:10:00,
2013-04-02 10:15:00,53.8,27.5,30.06,ENE,62,0.0,0.0,36,0.00,,---,0.00,VWS V14.01,2013-04-02 14:15:00,
2013-04-02 10:20:00,54.0,27.6,30.06,NE,37,0.0,0.0,36,0.00,,---,0.00,VWS V14.01,2013-04-02 14:20:00,
2013-04-02 10:25:00,54.3,28.0,30.06,NNE,14,0.0,0.0,36,0.00,,---,0.00,VWS V14.01,2013-04-02 14:25:00,
2013-04-02 10:30:00,54.5,28.1,30.06,ENE,60,4.7,4.7,36,0.00,,---,0.00,VWS V14.01,2013-04-02 14:30:00,
2013-04-02 10:35:00,54.5,28.1,30.06,NE,44,0.0,0.0,36,0.00,,---,0.00,VWS V14.01,2013-04-02 14:35:00,
2013-04-02 10:40:00,54.9,28.4,30.06,NE,40,0.0,0.0,36,0.00,,---,0.00,VWS V14.01,2013-04-02 14:40:00,
2013-04-02 10:45:00,55.0,28.6,30.06,NNW,343,0.0,2.7,36,0.00,,---,0.00,VWS V14.01,2013-04-02 14:45:00,
2013-04-02 10:50:00,55.4,28.2,30.06,East,79,0.0,0.0,35,0.00,,---,0.00,VWS V14.01,2013-04-02 14:50:00,
2013-04-02 10:55:00,55.4,27.5,30.06,North,353,0.0,0.0,34,0.00,,---,0.00,VWS V14.01,2013-04-02 14:55:00,
2013-04-02 11:00:00,55.8,28.5,30.06,North,0,0.0,0.0,35,0.00,,---,0.00,VWS V14.01,2013-04-02 15:00:00,
2013-04-02 11:05:00,55.9,28.0,30.06,NNE,14,0.0,0.0,34,0.00,,---,0.00,VWS V14.01,2013-04-02 15:05:00,
2013-04-02 11:10:00,55.9,27.3,30.06,North,6,0.0,0.0,33,0.00,,---,0.00,VWS V14.01,2013-04-02 15:10:00,
2013-04-02 11:15:00,56.3,27.6,30.06,ENE,78,0.0,2.7,33,0.00,,---,0.00,VWS V14.01,2013-04-02 15:15:00,
2013-04-02 11:20:00,56.3,27.6,30.06,East,88,0.0,0.0,33,0.00,,---,0.00,VWS V14.01,2013-04-02 15:20:00,
2013-04-02 11:25:00,56.7,27.9,30.06,North,357,0.0,0.0,33,0.00,,---,0.00,VWS V14.01,2013-04-02 15:25:00,
2013-04-02 11:30:00,56.8,27.3,30.06,NNE,30,0.0,0.0,32,0.00,,---,0.00,VWS V14.01,2013-04-02 15:30:00,
2013-04-02 11:35:00,57.0,26.7,30.06,NNW,346,0.0,2.2,31,0.00,,---,0.00,VWS V14.01,2013-04-02 15:35:00,
2013-04-02 11:40:00,57.2,26.9,30.06,NNW,337,0.0,3.1,31,0.00,,---,0.00,VWS V14.01,2013-04-02 15:40:00,
2013-04-02 11:45:00,57.4,27.0,30.06,WNW,300,0.0,0.0,31,0.00,,---,0.00,VWS V14.01,2013-04-02 15:45:00,
2013-04-02 11:50:00,57.7,27.3,30.06,West,265,0.0,0.0,31,0.00,,---,0.00,VWS V14.01,2013-04-02 15:50:00,
2013-04-02 11:55:00,57.9,27.5,30.06,NNE,15,0.0,0.0,31,0.00,,---,0.00,VWS V14.01,2013-04-02 15:55:00,
2013-04-02 12:00:00,57.9,25.9,30.06,NNE,18,0.0,0.0,29,0.00,,---,0.00,VWS V14.01,2013-04-02 16:00:00,
2013-04-02 12:05:00,57.9,25.9,30.06,NNE,18,0.0,0.0,29,0.00,,---,0.00,VWS V14.01,2013-04-02 16:05:00,
2013-04-02 12:10:00,57.9,25.9,30.06,NNE,26,0.0,0.0,29,0.00,,---,0.00,VWS V14.01,2013-04-02 16:10:00,
2013-04-02 12:15:00,58.3,26.2,30.06,NNE,22,0.0,0.0,29,0.00,,---,0.00,VWS V14.01,2013-04-02 16:15:00,
2013-04-02 12:20:00,58.1,25.2,30.06,NNE,22,0.0,0.0,28,0.00,,---,0.00,VWS V14.01,2013-04-02 16:20:00,
2013-04-02 12:25:00,58.5,25.5,30.06,NE,46,0.0,0.0,28,0.00,,---,0.00,VWS V14.01,2013-04-02 16:25:00,
2013-04-02 12:30:00,58.5,25.5,30.06,NE,46,0.0,0.0,28,0.00,,---,0.00,VWS V14.01,2013-04-02 16:30:00,
2013-04-02 12:36:00,58.5,25.5,30.06,ENE,69,0.0,0.0,28,0.00,,---,0.00,VWS V14.01,2013-04-02 16:36:00,
2013-04-02 12:41:00,58.5,25.5,30.06,East,87,5.4,5.4,28,0.00,,---,0.00,VWS V14.01,2013-04-02 16:41:00,
2013-04-02 12:46:00,58.8,25.8,30.06,East,79,0.0,0.0,28,0.00,,---,0.00,VWS V14.01,2013-04-02 16:46:00,
2013-04-02 12:51:00,58.8,25.8,30.06,North,353,0.0,0.0,28,0.00,,---,0.00,VWS V14.01,2013-04-02 16:51:00,
2013-04-02 12:55:00,59.4,26.3,30.06,East,100,0.0,0.0,28,0.00,,---,0.00,VWS V14.01,2013-04-02 16:55:00,
2013-04-02 13:01:00,59.2,25.2,30.06,ENE,57,0.0,0.0,27,0.00,,---,0.00,VWS V14.01,2013-04-02 17:01:00,
2013-04-02 13:06:00,59.7,25.7,30.06,ENE,71,0.0,0.0,27,0.00,,---,0.00,VWS V14.01,2013-04-02 17:06:00,
2013-04-02 13:10:00,59.4,26.3,30.06,South,170,0.0,0.0,28,0.00,,---,0.00,VWS V14.01,2013-04-02 17:10:00,
2013-04-02 13:16:00,59.4,28.7,30.06,SW,232,4.0,5.4,31,0.00,,---,0.00,VWS V14.01,2013-04-02 17:16:00,
2013-04-02 13:21:00,59.4,28.7,30.06,SE,135,6.0,6.0,31,0.00,,---,0.00,VWS V14.01,2013-04-02 17:21:00,
2013-04-02 13:26:00,59.4,29.5,30.06,West,278,0.0,0.0,32,0.00,,---,0.00,VWS V14.01,2013-04-02 17:26:00,
2013-04-02 13:31:00,59.4,29.5,30.06,ESE,122,4.7,4.7,32,0.00,,---,0.00,VWS V14.01,2013-04-02 17:31:00,
2013-04-02 13:35:00,59.4,31.0,30.06,SSE,151,4.0,4.0,34,0.00,,---,0.00,VWS V14.01,2013-04-02 17:35:00,
2013-04-02 13:40:00,59.0,30.7,30.03,SE,140,5.4,5.4,34,0.00,,---,0.00,VWS V14.01,2013-04-02 17:40:00,
2013-04-02 13:45:00,59.2,30.9,30.03,SSW,199,9.4,9.4,34,0.00,,---,0.00,VWS V14.01,2013-04-02 17:45:00,
2013-04-02 13:50:00,59.5,31.2,30.03,South,189,4.0,6.3,34,0.00,,---,0.00,VWS V14.01,2013-04-02 17:50:00,
2013-04-02 13:56:00,59.9,31.5,30.03,South,187,3.4,3.4,34,0.00,,---,0.00,VWS V14.01,2013-04-02 17:56:00,
2013-04-02 14:00:00,59.5,31.9,30.03,East,100,8.7,8.7,35,0.00,,---,0.00,VWS V14.01,2013-04-02 18:00:00,
2013-04-02 14:05:00,59.4,31.7,30.03,South,173,6.0,6.0,35,0.00,,---,0.00,VWS V14.01,2013-04-02 18:05:00,
2013-04-02 14:10:00,59.5,31.9,30.03,ESE,108,0.0,0.0,35,0.00,,---,0.00,VWS V14.01,2013-04-02 18:10:00,
2013-04-02 14:15:00,59.9,31.5,30.03,SSE,149,0.0,0.0,34,0.00,,---,0.00,VWS V14.01,2013-04-02 18:15:00,
2013-04-02 14:21:00,59.9,31.5,30.03,SE,143,0.0,0.0,34,0.00,,---,0.00,VWS V14.01,2013-04-02 18:21:00,
2013-04-02 14:26:00,60.1,31.6,30.03,South,179,0.0,0.0,34,0.00,,---,0.00,VWS V14.01,2013-04-02 18:26:00,
2013-04-02 14:31:00,60.1,31.6,30.03,SE,138,0.0,0.0,34,0.00,,---,0.00,VWS V14.01,2013-04-02 18:31:00,
2013-04-02 14:36:00,60.1,31.6,30.03,SE,125,0.0,0.0,34,0.00,,---,0.00,VWS V14.01,2013-04-02 18:36:00,
2013-04-02 14:41:00,60.3,31.8,30.03,SSE,167,0.0,0.0,34,0.00,,---,0.00,VWS V14.01,2013-04-02 18:41:00,
2013-04-02 14:46:00,60.1,31.6,30.03,SSE,152,0.0,0.0,34,0.00,,---,0.00,VWS V14.01,2013-04-02 18:46:00,
2013-04-02 14:51:00,60.1,31.6,30.03,SSW,212,0.0,0.0,34,0.00,,---,0.00,VWS V14.01,2013-04-02 18:51:00,
2013-04-02 14:56:00,59.9,31.5,30.03,SW,218,0.0,0.0,34,0.00,,---,0.00,VWS V14.01,2013-04-02 18:56:00,
2013-04-02 15:01:00,59.9,31.5,30.03,SSW,197,0.0,0.0,34,0.00,,---,0.00,VWS V14.01,2013-04-02 19:01:00,
2013-04-02 15:06:00,59.9,31.5,30.03,SSE,156,0.0,0.0,34,0.00,,---,0.00,VWS V14.01,2013-04-02 19:06:00,
2013-04-02 15:11:00,59.5,31.2,30.03,SE,133,0.0,0.0,34,0.00,,---,0.00,VWS V14.01,2013-04-02 19:11:00,
2013-04-02 15:16:00,59.4,31.0,30.03,ESE,122,0.0,0.0,34,0.00,,---,0.00,VWS V14.01,2013-04-02 19:16:00,
2013-04-02 15:21:00,59.4,31.0,30.03,South,181,0.0,0.0,34,0.00,,---,0.00,VWS V14.01,2013-04-02 19:21:00,
2013-04-02 15:26:00,59.4,31.0,30.03,SW,223,0.0,0.0,34,0.00,,---,0.00,VWS V14.01,2013-04-02 19:26:00,
2013-04-02 15:31:00,59.4,31.7,30.03,SSE,168,0.0,0.0,35,0.00,,---,0.00,VWS V14.01,2013-04-02 19:31:00,
2013-04-02 15:36:00,59.4,31.7,30.03,SE,143,0.0,0.0,35,0.00,,---,0.00,VWS V14.01,2013-04-02 19:36:00,
2013-04-02 15:41:00,59.4,31.7,30.00,SSE,153,0.0,0.0,35,0.00,,---,0.00,VWS V14.01,2013-04-02 19:41:00,
2013-04-02 15:46:00,59.2,32.3,30.00,South,173,0.0,0.0,36,0.00,,---,0.00,VWS V14.01,2013-04-02 19:46:00,
2013-04-02 15:51:00,59.2,31.6,30.00,SSE,164,0.0,0.0,35,0.00,,---,0.00,VWS V14.01,2013-04-02 19:51:00,
2013-04-02 15:56:00,58.8,32.0,30.00,SE,126,0.0,0.0,36,0.00,,---,0.00,VWS V14.01,2013-04-02 19:56:00,
2013-04-02 16:01:00,58.8,32.0,30.00,SW,234,0.0,0.0,36,0.00,,---,0.00,VWS V14.01,2013-04-02 20:01:00,
2013-04-02 16:06:00,58.5,31.6,30.00,WSW,245,0.0,0.0,36,0.00,,---,0.00,VWS V14.01,2013-04-02 20:06:00,
2013-04-02 16:11:00,58.5,32.3,30.00,ESE,118,0.0,0.0,37,0.00,,---,0.00,VWS V14.01,2013-04-02 20:11:00,
2013-04-02 16:16:00,58.3,32.2,30.00,SE,127,0.0,0.0,37,0.00,,---,0.00,VWS V14.01,2013-04-02 20:16:00,
2013-04-02 16:21:00,58.3,32.2,30.00,South,169,0.0,0.0,37,0.00,,---,0.00,VWS V14.01,2013-04-02 20:21:00,
2013-04-02 16:26:00,58.1,32.0,30.00,SSE,152,0.0,0.0,37,0.00,,---,0.00,VWS V14.01,2013-04-02 20:26:00,
2013-04-02 16:31:00,57.9,31.8,30.00,SSE,149,0.0,0.0,37,0.00,,---,0.00,VWS V14.01,2013-04-02 20:31:00,
2013-04-02 16:36:00,57.9,31.8,30.00,SSE,156,0.0,0.0,37,0.00,,---,0.00,VWS V14.01,2013-04-02 20:36:00,
2013-04-02 16:41:00,57.7,32.3,30.00,SE,140,0.0,0.0,38,0.00,,---,0.00,VWS V14.01,2013-04-02 20:41:00,
2013-04-02 16:46:00,57.6,32.2,30.00,SSE,151,0.0,0.0,38,0.00,,---,0.00,VWS V14.01,2013-04-02 20:46:00,
2013-04-02 16:52:00,57.4,32.0,30.00,SSE,159,0.0,0.0,38,0.00,,---,0.00,VWS V14.01,2013-04-02 20:52:00,
2013-04-02 16:57:00,57.4,32.0,30.00,SSE,157,0.0,0.0,38,0.00,,---,0.00,VWS V14.01,2013-04-02 20:57:00,
2013-04-02 17:02:00,57.2,31.8,30.00,SE,134,0.0,0.0,38,0.00,,---,0.00,VWS V14.01,2013-04-02 21:02:00,
2013-04-02 17:07:00,57.0,31.7,30.00,SE,143,0.0,0.0,38,0.00,,---,0.00,VWS V14.01,2013-04-02 21:07:00,
2013-04-02 17:12:00,56.8,31.5,30.00,SSE,148,0.0,0.0,38,0.00,,---,0.00,VWS V14.01,2013-04-02 21:12:00,
2013-04-02 17:17:00,56.8,32.2,30.00,SSE,159,0.0,0.0,39,0.00,,---,0.00,VWS V14.01,2013-04-02 21:17:00,
2013-04-02 17:22:00,56.7,32.0,30.00,SSE,152,0.0,0.0,39,0.00,,---,0.00,VWS V14.01,2013-04-02 21:22:00,
2013-04-02 17:27:00,56.7,32.0,30.00,SSE,147,0.0,0.0,39,0.00,,---,0.00,VWS V14.01,2013-04-02 21:27:00,
2013-04-02 17:32:00,56.7,32.0,30.00,South,177,0.0,0.0,39,0.00,,---,0.00,VWS V14.01,2013-04-02 21:32:00,
2013-04-02 17:37:00,56.5,32.5,30.00,SSE,147,0.0,0.0,40,0.00,,---,0.00,VWS V14.01,2013-04-02 21:37:00,
2013-04-02 17:42:00,56.7,32.6,30.00,SSE,149,0.0,0.0,40,0.00,,---,0.00,VWS V14.01,2013-04-02 21:42:00,
2013-04-02 17:47:00,56.5,32.5,30.00,South,184,0.0,0.0,40,0.00,,---,0.00,VWS V14.01,2013-04-02 21:47:00,
2013-04-02 17:52:00,56.3,32.3,30.03,South,172,0.0,0.0,40,0.00,,---,0.00,VWS V14.01,2013-04-02 21:52:00,
2013-04-02 17:57:00,56.3,32.3,30.03,SE,145,0.0,0.0,40,0.00,,---,0.00,VWS V14.01,2013-04-02 21:57:00,
2013-04-02 18:02:00,56.1,32.2,30.03,SSE,166,0.0,0.0,40,0.00,,---,0.00,VWS V14.01,2013-04-02 22:02:00,
2013-04-02 18:07:00,55.9,32.0,30.03,South,190,0.0,0.0,40,0.00,,---,0.00,VWS V14.01,2013-04-02 22:07:00,
2013-04-02 18:12:00,55.6,31.7,30.03,ESE,113,0.0,0.0,40,0.00,,---,0.00,VWS V14.01,2013-04-02 22:12:00,
2013-04-02 18:17:00,55.4,32.1,30.03,SSE,152,0.0,0.0,41,0.00,,---,0.00,VWS V14.01,2013-04-02 22:17:00,
2013-04-02 18:22:00,55.4,32.1,30.03,ESE,114,0.0,3.1,41,0.00,,---,0.00,VWS V14.01,2013-04-02 22:22:00,
2013-04-02 18:27:00,55.4,32.7,30.03,SW,231,8.1,8.1,42,0.00,,---,0.00,VWS V14.01,2013-04-02 22:27:00,
2013-04-02 18:32:00,55.2,32.5,30.03,South,187,0.0,4.0,42,0.00,,---,0.00,VWS V14.01,2013-04-02 22:32:00,
2013-04-02 18:37:00,55.2,32.5,30.03,SSW,207,0.0,0.0,42,0.00,,---,0.00,VWS V14.01,2013-04-02 22:37:00,
2013-04-02 18:42:00,55.0,33.0,30.03,SSE,168,0.0,0.0,43,0.00,,---,0.00,VWS V14.01,2013-04-02 22:42:00,
2013-04-02 18:47:00,55.0,33.0,30.03,SSE,167,0.0,0.0,43,0.00,,---,0.00,VWS V14.01,2013-04-02 22:47:00,
2013-04-02 18:53:00,54.9,32.2,30.03,ESE,106,0.0,0.0,42,0.00,,---,0.00,VWS V14.01,2013-04-02 22:53:00,
2013-04-02 18:58:00,54.7,32.1,30.03,South,175,0.0,0.0,42,0.00,,---,0.00,VWS V14.01,2013-04-02 22:58:00,
2013-04-02 19:03:00,54.9,32.8,30.03,SSE,157,3.4,3.4,43,0.00,,---,0.00,VWS V14.01,2013-04-02 23:03:00,
2013-04-02 19:08:00,54.7,32.6,30.03,SE,141,4.0,4.0,43,0.00,,---,0.00,VWS V14.01,2013-04-02 23:08:00,
2013-04-02 19:13:00,54.7,33.2,30.03,SE,141,0.0,0.0,44,0.00,,---,0.00,VWS V14.01,2013-04-02 23:13:00,
2013-04-02 19:18:00,54.5,33.6,30.03,South,171,0.0,0.0,45,0.00,,---,0.00,VWS V14.01,2013-04-02 23:18:00,
2013-04-02 19:23:00,54.5,33.6,30.03,SSE,152,0.0,0.0,45,0.00,,---,0.00,VWS V14.01,2013-04-02 23:23:00,
2013-04-02 19:28:00,54.5,33.6,30.03,SSE,161,0.0,0.0,45,0.00,,---,0.00,VWS V14.01,2013-04-02 23:28:00,
2013-04-02 19:33:00,54.5,33.6,30.03,SSW,210,0.0,0.0,45,0.00,,---,0.00,VWS V14.01,2013-04-02 23:33:00,
2013-04-02 19:38:00,54.5,34.2,30.03,South,191,4.7,4.7,46,0.00,,---,0.00,VWS V14.01,2013-04-02 23:38:00,
2013-04-02 19:42:00,54.3,34.0,30.03,SW,220,0.0,2.2,46,0.00,,---,0.00,VWS V14.01,2013-04-02 23:42:00,
2013-04-02 19:47:00,54.3,34.0,30.03,SE,141,0.0,0.0,46,0.00,,---,0.00,VWS V14.01,2013-04-02 23:47:00,
2013-04-02 19:52:00,54.3,34.0,30.03,SE,141,0.0,0.0,46,0.00,,---,0.00,VWS V14.01,2013-04-02 23:52:00,
2013-04-02 19:57:00,54.1,34.4,30.03,SSW,203,0.0,0.0,47,0.00,,---,0.00,VWS V14.01,2013-04-02 23:57:00,
2013-04-02 20:03:00,54.1,34.4,30.03,SE,133,0.0,0.0,47,0.00,,---,0.00,VWS V14.01,2013-04-03 00:03:00,
2013-04-02 20:08:00,54.3,34.5,30.03,WSW,238,4.7,4.7,47,0.00,,---,0.00,VWS V14.01,2013-04-03 00:08:00,
2013-04-02 20:13:00,54.1,34.4,30.03,SW,214,0.0,0.0,47,0.00,,---,0.00,VWS V14.01,2013-04-03 00:13:00,
2013-04-02 20:18:00,54.1,34.9,30.03,SSE,167,0.0,3.6,48,0.00,,---,0.00,VWS V14.01,2013-04-03 00:18:00,
2013-04-02 20:23:00,54.3,35.1,30.03,West,263,0.0,0.0,48,0.00,,---,0.00,VWS V14.01,2013-04-03 00:23:00,
2013-04-02 20:28:00,54.1,34.9,30.03,SSW,198,0.0,0.0,48,0.00,,---,0.00,VWS V14.01,2013-04-03 00:28:00,
2013-04-02 20:33:00,54.1,34.4,30.03,South,185,0.0,0.0,47,0.00,,---,0.00,VWS V14.01,2013-04-03 00:33:00,
2013-04-02 20:38:00,54.3,35.1,30.06,South,189,0.0,0.0,48,0.00,,---,0.00,VWS V14.01,2013-04-03 00:38:00,
2013-04-02 20:43:00,54.1,34.9,30.06,SSW,200,0.0,0.0,48,0.00,,---,0.00,VWS V14.01,2013-04-03 00:43:00,
2013-04-02 20:48:00,54.1,35.4,30.06,SSW,212,0.0,0.0,49,0.00,,---,0.00,VWS V14.01,2013-04-03 00:48:00,
2013-04-02 20:53:00,54.1,35.4,30.06,SSW,193,0.0,0.0,49,0.00,,---,0.00,VWS V14.01,2013-04-03 00:53:00,
2013-04-02 20:58:00,54.3,36.1,30.06,SSW,203,0.0,0.0,50,0.00,,---,0.00,VWS V14.01,2013-04-03 00:58:00,
2013-04-02 21:03:00,54.3,36.1,30.06,South,173,0.0,0.0,50,0.00,,---,0.00,VWS V14.01,2013-04-03 01:03:00,
2013-04-02 21:08:00,54.1,35.9,30.06,South,173,0.0,0.0,50,0.00,,---,0.00,VWS V14.01,2013-04-03 01:08:00,
2013-04-02 21:13:00,54.1,36.4,30.06,SSW,208,0.0,0.0,51,0.00,,---,0.00,VWS V14.01,2013-04-03 01:13:00,
2013-04-02 21:18:00,54.1,36.4,30.06,SSW,202,0.0,0.0,51,0.00,,---,0.00,VWS V14.01,2013-04-03 01:18:00,
2013-04-02 21:23:00,54.1,36.9,30.06,SW,219,0.0,2.2,52,0.00,,---,0.00,VWS V14.01,2013-04-03 01:23:00,
2013-04-02 21:28:00,54.1,36.9,30.06,SSW,196,0.0,0.0,52,0.00,,---,0.00,VWS V14.01,2013-04-03 01:28:00,
2013-04-02 21:33:00,54.1,36.9,30.06,SSW,196,0.0,0.0,52,0.00,,---,0.00,VWS V14.01,2013-04-03 01:33:00,
2013-04-02 21:38:00,54.1,37.4,30.06,South,186,0.0,3.6,53,0.00,,---,0.00,VWS V14.01,2013-04-03 01:38:00,
2013-04-02 21:43:00,54.1,37.4,30.06,South,186,0.0,0.0,53,0.00,,---,0.00,VWS V14.01,2013-04-03 01:43:00,
2013-04-02 21:48:00,54.0,37.7,30.06,South,187,0.0,0.0,54,0.00,,---,0.00,VWS V14.01,2013-04-03 01:48:00,
2013-04-02 21:53:00,54.0,37.7,30.06,South,188,0.0,0.0,54,0.00,,---,0.00,VWS V14.01,2013-04-03 01:53:00,
2013-04-02 21:58:00,54.0,37.7,30.06,South,189,0.0,0.0,54,0.00,,---,0.00,VWS V14.01,2013-04-03 01:58:00,
2013-04-02 22:03:00,54.0,38.2,30.06,South,189,0.0,0.0,55,0.00,,---,0.00,VWS V14.01,2013-04-03 02:03:00,
2013-04-02 22:08:00,54.0,38.2,30.06,South,189,0.0,0.0,55,0.00,,---,0.00,VWS V14.01,2013-04-03 02:08:00,
2013-04-02 22:13:00,53.8,38.5,30.06,South,187,0.0,0.0,56,0.00,,---,0.00,VWS V14.01,2013-04-03 02:13:00,
2013-04-02 22:18:00,53.8,38.9,30.06,South,189,0.0,0.0,57,0.00,,---,0.00,VWS V14.01,2013-04-03 02:18:00,
2013-04-02 22:24:00,53.6,38.8,30.06,South,189,0.0,0.0,57,0.00,,---,0.00,VWS V14.01,2013-04-03 02:24:00,
2013-04-02 22:28:00,53.6,39.2,30.06,South,188,0.0,0.0,58,0.00,,---,0.00,VWS V14.01,2013-04-03 02:28:00,
2013-04-02 22:33:00,53.6,39.6,30.06,South,187,0.0,0.0,59,0.00,,---,0.00,VWS V14.01,2013-04-03 02:33:00,
2013-04-02 22:38:00,53.4,39.9,30.06,South,187,0.0,0.0,60,0.00,,---,0.00,VWS V14.01,2013-04-03 02:38:00,
2013-04-02 22:43:00,53.4,39.9,30.06,South,189,0.0,0.0,60,0.00,,---,0.00,VWS V14.01,2013-04-03 02:43:00,
2013-04-02 22:48:00,53.2,40.2,30.06,South,189,0.0,0.0,61,0.00,,---,0.00,VWS V14.01,2013-04-03 02:48:00,
2013-04-02 22:54:00,53.2,40.6,30.06,SSW,192,0.0,0.0,62,0.00,,---,0.00,VWS V14.01,2013-04-03 02:54:00,
2013-04-02 22:59:00,53.2,40.6,30.06,SSW,192,0.0,0.0,62,0.00,,---,0.00,VWS V14.01,2013-04-03 02:59:00,
2013-04-02 23:04:00,53.4,41.2,30.06,SSW,192,0.0,0.0,63,0.00,,---,0.00,VWS V14.01,2013-04-03 03:04:00,
2013-04-02 23:09:00,53.2,41.4,30.06,SSW,192,0.0,0.0,64,0.00,,---,0.00,VWS V14.01,2013-04-03 03:09:00,
2013-04-02 23:14:00,53.2,41.4,30.06,SSW,192,0.0,0.0,64,0.00,,---,0.00,VWS V14.01,2013-04-03 03:14:00,
2013-04-02 23:19:00,53.2,41.4,30.06,SSW,192,0.0,0.0,64,0.00,,---,0.00,VWS V14.01,2013-04-03 03:19:00,
2013-04-02 23:24:00,53.2,41.8,30.06,SSW,192,0.0,0.0,65,0.00,,---,0.00,VWS V14.01,2013-04-03 03:24:00,
2013-04-02 23:29:00,53.1,41.6,30.06,SSW,192,0.0,0.0,65,0.00,,---,0.00,VWS V14.01,2013-04-03 03:29:00,
2013-04-02 23:34:00,53.1,41.6,30.06,SSW,192,0.0,0.0,65,0.00,,---,0.00,VWS V14.01,2013-04-03 03:34:00,
2013-04-02 23:39:00,52.9,41.8,30.06,SSW,192,0.0,0.0,66,0.00,,---,0.00,VWS V14.01,2013-04-03 03:39:00,
2013-04-02 23:44:00,52.9,41.8,30.06,SSW,192,0.0,0.0,66,0.00,,---,0.00,VWS V14.01,2013-04-03 03:44:00,
2013-04-02 23:49:00,52.7,41.7,30.06,SSW,192,0.0,0.0,66,0.00,,---,0.00,VWS V14.01,2013-04-03 03:49:00,
2013-04-02 23:54:00,52.5,41.5,30.06,SSW,192,0.0,0.0,66,0.00,,---,0.00,VWS V14.01,2013-04-03 03:54:00,
2013-04-02 23:59:00,52.3,41.3,30.06,SSW,192,0.0,0.0,66,0.00,,---,0.00,VWS V14.01,2013-04-03 03:59:00,